Wind_Speed
36 35 33 31 31 29 27 25 23 19 16 13 12 11 10 10 12 13 22 23 23 20 17 14 11 12 13 17 19 24 30 31 33 36 36 37 33 30 28 26 28 27 27 24 23 21 25
37 38 36 34 32 31 29 27 25 23 19 16 14 13 11 10 10 10 15 20 21 21 19 16 12 11 14 18 18 22 30 32 31 35 35 33 35 32 28 27 30 32 26 25 25 24 27
41 38 38 37 35 34 32 30 28 25 23 19 17 14 13 11 9 9 11 18 19 18 19 18 15 12 15 19 19 19 27 33 30 34 35 34 33 31 29 28 29 29 29 26 27 29 31
40 40 40 38 37 36 35 33 32 29 27 24 20 18 15 14 12 10 10 11 16 19 19 18 18 14 18 14 13 17 26 32 32 34 37 37 36 34 32 29 29 28 29 28 28 26 30
37 36 38 40 38 38 36 34 34 33 30 28 24 20 18 16 16 13 12 12 13 14 17 18 17 18 19 13 17 24 23 30 34 34 36 37 38 38 36 34 34 34 30 29 26 29 31
39 35 35 36 36 38 37 36 36 35 32 31 28 24 22 19 18 16 15 14 13 13 13 15 17 20 20 15 19 26 31 33 33 33 33 34 35 35 35 35 34 29 30 31 28 27 36
42 38 35 34 34 35 34 31 32 32 33 34 31 28 26 22 22 18 17 16 12 10 12 13 14 22 21 16 18 21 26 32 30 32 32 32 32 29 29 31 32 32 32 33 29 30 38
45 41 38 35 32 33 34 32 30 29 27 30 33 33 29 27 24 21 18 16 12 9 9 11 12 20 22 21 19 22 25 29 34 31 30 29 26 29 30 30 31 32 32 31 31 32 36
55 46 45 39 35 32 32 33 32 30 33 29 29 32 27 29 25 24 21 17 13 9 9 10 9 17 23 24 22 23 23 23 26 34 34 32 29 32 33 34 33 32 32 32 33 31 33
59 57 53 49 45 40 36 32 30 29 28 32 33 31 30 28 25 27 23 19 15 12 11 9 11 12 17 23 21 22 21 21 22 23 30 35 32 33 34 33 33 31 31 31 31 32 32
61 57 51 46 43 44 43 37 33 32 30 30 34 32 30 28 28 29 24 20 17 14 12 8 9 10 8 20 25 23 22 20 20 22 27 24 32 34 35 33 32 31 30 28 30 32 34
62 59 53 48 44 45 43 41 38 35 34 33 31 32 32 29 31 29 26 22 20 18 16 12 9 6 6 15 25 25 24 22 22 22 22 20 26 30 29 30 30 30 26 25 29 33 32
59 58 58 52 49 45 42 41 39 38 37 32 31 32 32 30 33 29 27 24 23 22 15 10 9 8 7 11 22 28 25 19 20 21 19 19 24 24 22 23 25 21 22 29 30 29 29
62 57 56 57 53 48 45 43 41 37 36 33 31 31 32 32 33 30 27 25 26 22 18 14 12 11 11 13 18 25 23 23 24 23 22 21 20 23 25 26 21 22 26 26 29 26 25
66 62 57 55 56 50 46 45 41 36 34 34 31 29 32 32 32 31 28 27 26 22 19 16 15 14 15 14 15 22 23 25 25 23 21 19 19 21 21 18 17 21 25 25 28 27 29
69 66 61 56 53 54 50 47 42 38 34 33 32 30 31 33 32 30 29 29 26 22 21 17 16 15 17 16 14 23 25 26 24 20 19 19 20 22 21 21 23 25 25 25 27 32 34
73 69 63 58 53 51 51 48 44 40 36 33 33 32 31 32 33 31 29 29 25 21 20 18 18 17 16 13 13 21 24 24 22 19 19 19 21 20 19 21 22 24 27 29 32 35 37
77 72 67 60 56 52 49 48 44 41 38 35 34 34 32 30 34 31 29 29 25 22 20 17 17 17 17 11 13 22 19 18 20 20 21 21 22 21 20 21 23 24 29 31 32 35 37
80 74 70 64 57 52 49 46 43 42 40 36 35 35 32 31 32 31 31 30 27 23 20 17 16 17 17 13 12 17 15 14 13 12 10 12 16 17 19 23 27 31 33 33 36 40 40
84 77 72 67 60 54 50 47 45 43 40 39 36 36 34 31 30 32 34 33 28 24 22 18 17 17 17 14 14 16 15 14 14 13 16 19 22 25 27 29 30 32 35 39 40 40 41
86 81 75 70 64 58 52 48 47 44 42 40 38 37 36 34 30 33 37 34 29 26 24 19 17 16 15 15 12 18 18 20 20 19 22 24 23 19 21 25 27 29 31 32 34 36 36
88 83 78 72 67 61 55 51 48 46 43 41 39 38 36 33 31 35 38 34 31 28 24 19 17 14 14 12 10 7 7 7 10 11 11 9 10 10 10 12 13 13 15 16 15 17 19
88 84 81 75 69 64 58 52 49 48 44 42 41 38 35 34 32 34 33 33 32 30 26 21 17 15 12 11 10 10 9 8 6 8 9 12 12 13 13 15 15 15 15 15 15 15 17
89 86 82 76 71 66 60 54 50 48 45 43 41 39 36 33 33 31 32 35 35 30 27 23 19 16 15 14 13 11 10 9 10 11 12 14 12 13 14 14 15 15 14 15 16 15 19
89 86 83 78 72 68 63 55 51 49 47 43 42 41 37 34 35 35 35 38 37 32 29 24 21 19 19 19 16 14 13 12 11 11 12 12 11 12 11 12 15 15 16 15 17 19 21
88 86 84 79 74 70 65 57 52 50 48 44 43 42 38 37 36 36 35 35 35 32 27 24 23 22 22 19 17 16 15 13 11 10 10 10 11 12 12 14 15 17 18 19 21 22 25
87 86 84 79 75 71 65 59 54 50 48 44 43 43 40 39 37 38 35 32 34 33 29 27 25 23 22 19 18 18 16 13 12 10 11 12 13 14 13 13 15 16 18 20 23 25 27
86 86 83 79 75 72 66 60 55 52 48 45 44 44 42 40 38 36 35 31 33 33 32 29 28 26 24 20 19 18 16 15 13 13 13 14 15 15 14 15 16 16 20 22 24 27 28
85 85 83 80 76 73 67 62 57 53 48 47 45 45 42 40 39 35 36 33 32 36 36 33 30 27 24 21 19 19 18 17 17 14 15 16 15 15 16 17 17 19 21 23 25 27 28
Wind_Direction
224 225 223 223 224 222 225 223 223 226 230 244 256 269 269 267 262 255 237 241 240 238 241 243 242 231 225 224 223 218 213 212 204 200 200 211 210 214 219 230 242 253 255 268 279 272 273
226 225 226 223 224 223 222 226 226 226 231 239 250 259 270 275 270 269 248 241 243 239 236 240 241 232 225 224 227 219 212 210 210 206 208 213 215 216 218 226 245 261 271 282 286 279 286
227 227 228 226 225 225 223 226 229 230 231 235 245 254 262 271 274 273 265 245 247 246 244 242 242 235 226 227 227 218 210 210 211 214 212 218 226 227 226 227 244 259 275 284 288 293 285
228 227 229 229 229 227 227 228 232 232 235 235 239 246 254 260 262 274 272 264 251 250 246 241 236 232 232 230 225 214 210 209 211 216 220 220 223 231 235 235 246 260 270 283 289 284 281
223 227 228 228 229 232 230 229 230 233 234 237 238 242 248 255 258 270 281 270 258 255 250 246 235 228 237 218 212 211 211 211 212 216 223 226 229 234 235 235 242 253 264 273 274 281 283
222 225 227 226 228 231 231 233 234 233 233 234 235 239 244 250 256 260 273 290 272 259 254 246 235 232 234 223 219 217 206 212 215 221 223 229 233 238 248 252 258 267 268 263 266 274 278
224 222 227 227 225 226 223 226 233 234 234 235 235 235 241 245 253 255 264 282 284 271 258 247 243 236 231 223 220 220 221 225 220 223 228 233 235 240 248 251 253 256 259 263 263 269 273
228 224 224 228 226 228 226 227 230 238 239 240 236 237 241 245 245 251 256 266 281 273 258 242 249 241 229 219 218 223 215 220 229 222 229 233 243 244 245 249 254 258 263 265 269 272 280
231 228 225 228 228 231 233 230 233 233 239 248 242 232 238 239 236 244 248 257 270 264 260 243 277 247 227 216 218 225 227 225 224 230 227 226 229 233 240 249 258 262 268 273 277 282 280
229 228 233 237 231 233 232 230 234 239 236 243 247 235 230 232 230 236 243 249 257 254 266 256 276 277 234 218 216 226 231 230 231 228 230 231 227 232 238 244 252 259 266 271 275 271 275
229 230 231 231 229 232 230 232 235 240 243 240 239 233 224 225 227 230 235 241 248 252 267 260 275 281 268 222 221 222 228 230 232 233 233 231 232 234 237 244 248 256 256 263 270 275 278
226 228 228 230 230 226 228 232 235 237 241 237 228 226 223 219 227 226 231 237 244 249 265 283 299 291 280 224 233 229 228 228 233 235 242 236 235 238 241 244 248 253 261 264 261 268 276
224 225 226 227 228 226 226 229 235 237 235 231 227 221 220 217 226 221 225 232 242 250 257 267 297 282 270 247 236 230 228 229 234 235 236 229 232 231 239 245 250 253 256 259 263 272 282
224 222 223 223 224 224 225 228 232 233 233 230 224 220 217 216 222 218 220 227 239 246 254 266 279 282 285 283 248 231 224 223 228 229 228 225 227 228 227 237 239 238 250 265 275 282 280
220 222 220 222 221 222 223 227 229 231 225 225 222 220 215 217 219 215 217 225 235 244 252 259 270 285 291 285 243 232 224 226 228 226 224 225 218 233 241 244 237 251 262 271 280 285 288
217 220 219 219 220 221 223 225 226 227 224 221 220 219 217 217 217 213 215 223 231 239 249 259 272 281 285 285 242 224 222 223 231 233 232 230 227 233 242 247 255 261 273 279 285 291 296
214 217 219 216 218 220 221 223 223 223 223 218 219 218 219 218 218 212 212 222 229 234 245 257 271 278 279 268 251 225 229 229 231 233 238 238 240 238 251 258 266 273 275 279 284 288 296
213 214 216 216 214 217 218 220 220 219 220 216 216 216 217 218 218 213 212 219 223 227 237 248 265 269 271 255 238 237 243 231 231 230 234 242 249 253 256 263 267 270 272 278 287 291 295
211 212 214 214 213 213 216 217 218 216 216 215 215 214 216 219 218 212 213 218 218 221 229 241 257 263 268 248 229 233 234 239 235 238 246 251 261 271 271 270 270 273 278 281 286 290 294
208 210 211 212 212 211 213 214 215 215 214 214 214 213 212 218 217 211 214 217 215 219 225 235 251 254 257 252 217 213 223 227 230 245 260 266 263 264 265 268 271 272 276 280 282 285 290
206 207 208 209 210 211 212 213 214 213 212 212 212 212 210 213 212 210 215 214 213 213 221 230 245 250 249 247 236 225 228 226 234 255 262 263 272 272 269 269 271 273 277 279 280 284 287
204 205 206 208 209 210 210 211 211 212 211 211 210 209 210 213 212 212 214 212 211 212 217 223 229 236 240 235 212 215 223 208 209 230 257 281 288 297 298 296 297 298 294 298 297 294 298
202 202 204 206 206 207 210 209 209 210 210 210 210 207 209 212 212 213 217 214 211 213 214 213 219 222 214 198 176 174 192 197 217 246 259 275 285 293 297 300 304 304 309 309 312 310 308
201 200 202 204 204 205 208 208 207 208 208 208 207 207 210 214 214 212 213 213 213 211 212 210 210 203 202 206 201 203 211 225 240 255 265 273 277 283 294 298 302 307 311 312 312 312 317
199 199 200 201 202 203 205 206 204 206 208 206 206 206 210 212 210 210 214 212 212 210 211 210 208 209 212 217 223 229 232 236 248 261 271 281 289 291 297 296 299 304 307 310 316 317 318
196 198 199 199 200 202 203 203 202 204 205 204 204 204 207 209 210 210 215 215 213 212 210 210 208 214 219 222 227 231 237 244 253 270 283 291 294 298 302 297 303 308 311 317 318 318 323
193 196 197 197 198 200 201 201 199 203 203 201 202 205 208 208 211 211 214 214 213 213 207 208 208 212 219 222 226 234 240 246 264 283 294 299 299 300 300 302 302 308 314 317 318 323 324
192 194 195 195 197 198 199 200 198 202 201 200 201 204 208 206 212 213 213 214 209 210 210 209 212 216 223 226 232 239 244 250 263 278 292 297 298 303 308 306 311 315 315 318 320 321 322
190 192 193 193 196 197 197 197 197 200 197 198 200 204 207 207 210 212 213 215 213 210 211 211 217 220 222 226 233 240 245 252 259 272 286 291 298 302 304 314 319 315 316 316 317 317 317
Height
5786 5790 5795 5799 5804 5807 5811 5814 5817 5820 5822 5824 5826 5827 5827 5827 5827 5827 5829 5831 5834 5836 5839 5840 5841 5843 5844 5845 5846 5848 5851 5856 5860 5863 5866 5869 5872 5876 5880 5881 5880 5880 5882 5884 5886 5886 5883
5778 5783 5788 5793 5798 5802 5805 5810 5813 5816 5818 5821 5823 5824 5825 5825 5825 5825 5826 5827 5829 5832 5835 5837 5838 5840 5841 5842 5844 5845 5849 5853 5858 5862 5866 5868 5869 5873 5878 5878 5878 5878 5879 5881 5883 5883 5880
5770 5775 5781 5786 5791 5796 5800 5804 5808 5811 5814 5817 5819 5821 5822 5823 5823 5823 5823 5824 5826 5828 5831 5833 5835 5836 5838 5838 5841 5844 5847 5851 5856 5860 5863 5866 5868 5870 5873 5874 5875 5875 5876 5877 5878 5877 5875
5762 5767 5773 5778 5783 5788 5793 5797 5802 5806 5809 5812 5814 5817 5819 5820 5821 5822 5822 5822 5823 5824 5827 5829 5831 5833 5833 5836 5840 5842 5844 5847 5852 5855 5858 5861 5864 5865 5869 5869 5871 5872 5873 5874 5874 5871 5869
5754 5759 5765 5770 5775 5782 5786 5790 5795 5800 5803 5807 5810 5813 5815 5817 5818 5819 5820 5820 5820 5821 5822 5825 5828 5829 5830 5834 5835 5838 5842 5844 5847 5851 5854 5857 5860 5862 5864 5866 5867 5867 5869 5871 5870 5866 5863
5746 5752 5758 5762 5767 5773 5778 5784 5788 5793 5797 5801 5805 5808 5811 5814 5815 5817 5817 5817 5816 5818 5819 5821 5823 5826 5827 5831 5832 5835 5835 5836 5843 5847 5850 5853 5856 5859 5860 5861 5863 5866 5864 5864 5865 5866 5858
5738 5743 5750 5755 5760 5766 5771 5776 5781 5786 5790 5795 5799 5802 5806 5809 5812 5814 5815 5815 5816 5817 5816 5818 5820 5820 5822 5827 5829 5831 5835 5837 5839 5841 5844 5848 5852 5855 5858 5858 5858 5858 5858 5858 5860 5860 5854
5728 5735 5741 5748 5753 5759 5764 5769 5775 5780 5784 5788 5793 5797 5800 5804 5807 5810 5811 5812 5813 5813 5813 5814 5815 5815 5818 5822 5824 5825 5829 5832 5835 5838 5840 5844 5848 5850 5851 5851 5852 5852 5853 5854 5854 5853 5851
5718 5726 5734 5741 5746 5752 5757 5762 5767 5773 5778 5782 5786 5790 5794 5798 5803 5806 5807 5809 5809 5810 5810 5811 5811 5810 5813 5818 5820 5822 5825 5827 5830 5834 5836 5838 5844 5843 5844 5845 5847 5848 5848 5849 5848 5849 5846
5707 5716 5725 5732 5739 5745 5750 5755 5760 5766 5770 5776 5781 5784 5788 5793 5799 5800 5803 5805 5807 5807 5808 5809 5809 5807 5809 5812 5817 5817 5821 5823 5825 5829 5831 5833 5837 5838 5838 5840 5840 5842 5843 5843 5841 5838 5837
5697 5705 5714 5722 5729 5736 5743 5748 5753 5759 5764 5769 5774 5779 5782 5787 5791 5794 5799 5801 5804 5805 5805 5807 5806 5806 5806 5810 5811 5814 5816 5818 5821 5822 5824 5831 5831 5831 5831 5834 5835 5837 5836 5835 5833 5831 5830
5685 5695 5703 5712 5720 5728 5734 5741 5747 5753 5758 5764 5768 5772 5776 5780 5784 5790 5794 5797 5800 5802 5802 5804 5804 5804 5804 5805 5806 5809 5812 5815 5815 5818 5820 5824 5825 5825 5828 5828 5829 5830 5831 5830 5828 5826 5826
5674 5684 5694 5703 5711 5719 5726 5733 5739 5745 5752 5758 5761 5766 5770 5774 5778 5785 5789 5793 5796 5797 5801 5802 5802 5801 5801 5801 5801 5804 5808 5811 5812 5813 5815 5817 5819 5821 5823 5824 5824 5825 5825 5822 5822 5823 5823
5662 5673 5683 5693 5703 5711 5719 5726 5733 5739 5745 5751 5756 5760 5763 5768 5773 5779 5784 5789 5791 5794 5797 5798 5798 5798 5798 5797 5797 5799 5803 5805 5807 5808 5810 5812 5815 5816 5817 5818 5821 5820 5820 5820 5817 5818 5817
5651 5662 5673 5683 5693 5702 5710 5718 5725 5732 5738 5745 5750 5753 5758 5762 5768 5773 5779 5783 5786 5790 5793 5795 5795 5796 5795 5794 5794 5795 5798 5801 5802 5804 5807 5810 5811 5812 5815 5816 5817 5817 5816 5816 5813 5812 5809
5639 5651 5663 5674 5683 5693 5702 5709 5717 5725 5732 5738 5743 5748 5752 5756 5763 5768 5774 5777 5781 5786 5788 5791 5792 5793 5792 5791 5791 5791 5794 5797 5798 5802 5804 5807 5809 5809 5812 5813 5813 5812 5812 5811 5810 5806 5804
5626 5640 5652 5664 5674 5684 5693 5701 5710 5718 5724 5731 5737 5742 5747 5752 5758 5763 5769 5772 5777 5781 5784 5788 5789 5789 5789 5788 5788 5790 5793 5796 5798 5801 5803 5804 5805 5808 5808 5808 5808 5808 5806 5805 5805 5803 5799
5613 5628 5641 5653 5665 5676 5685 5694 5702 5710 5717 5724 5730 5736 5742 5746 5753 5759 5764 5767 5773 5777 5779 5783 5785 5785 5785 5785 5787 5788 5791 5793 5795 5797 5799 5801 5802 5803 5804 5803 5803 5803 5800 5800 5800 5798 5794
5600 5616 5631 5643 5656 5667 5677 5686 5694 5702 5710 5718 5724 5731 5736 5741 5748 5755 5758 5763 5769 5772 5775 5779 5781 5782 5782 5783 5785 5786 5788 5791 5794 5795 5797 5798 5798 5799 5799 5800 5798 5796 5796 5794 5792 5790 5787
5585 5604 5620 5634 5646 5658 5668 5678 5687 5695 5703 5711 5718 5724 5731 5736 5743 5749 5752 5757 5765 5768 5771 5775 5776 5777 5779 5780 5782 5784 5786 5789 5791 5793 5794 5794 5795 5795 5795 5794 5793 5791 5789 5787 5786 5784 5782
5572 5591 5608 5622 5635 5649 5660 5670 5680 5688 5696 5704 5712 5718 5725 5730 5738 5743 5746 5753 5760 5764 5767 5771 5773 5775 5776 5777 5779 5781 5783 5786 5789 5790 5788 5790 5789 5789 5788 5787 5786 5785 5784 5782 5781 5779 5776
5559 5579 5597 5613 5627 5640 5652 5661 5671 5680 5689 5698 5706 5713 5720 5727 5732 5737 5740 5748 5755 5759 5763 5767 5771 5772 5773 5775 5776 5778 5780 5782 5783 5785 5785 5785 5786 5785 5784 5783 5782 5782 5780 5778 5776 5774 5771
5548 5567 5585 5601 5617 5631 5644 5655 5665 5674 5683 5692 5700 5707 5714 5721 5726 5732 5739 5745 5750 5754 5759 5763 5767 5770 5771 5773 5774 5776 5778 5780 5782 5783 5784 5784 5784 5782 5782 5780 5779 5779 5776 5775 5773 5771 5768
5536 5556 5574 5591 5608 5623 5636 5648 5658 5668 5677 5686 5694 5703 5710 5716 5722 5728 5732 5738 5744 5750 5755 5759 5763 5767 5770 5770 5772 5774 5777 5779 5780 5781 5781 5781 5781 5780 5779 5777 5777 5775 5773 5772 5770 5767 5764
5524 5545 5565 5582 5599 5614 5627 5640 5651 5661 5669 5679 5688 5696 5703 5710 5716 5721 5725 5731 5738 5745 5750 5755 5759 5764 5766 5769 5771 5773 5775 5777 5777 5777 5777 5777 5777 5776 5776 5774 5773 5772 5770 5768 5766 5763 5759
5515 5536 5555 5572 5590 5605 5620 5633 5644 5654 5663 5673 5682 5690 5697 5705 5710 5715 5720 5727 5734 5741 5748 5752 5755 5758 5762 5765 5768 5770 5771 5773 5774 5774 5774 5774 5773 5773 5772 5771 5769 5767 5764 5762 5760 5758 5754
5506 5526 5545 5563 5581 5597 5613 5626 5637 5647 5657 5668 5676 5684 5691 5698 5705 5710 5715 5723 5730 5737 5743 5747 5750 5754 5758 5761 5764 5766 5768 5769 5769 5770 5770 5770 5769 5768 5768 5768 5766 5763 5760 5758 5756 5755 5748
5497 5518 5537 5555 5574 5590 5606 5619 5630 5640 5651 5662 5671 5678 5685 5693 5699 5706 5711 5718 5725 5731 5737 5743 5746 5749 5753 5757 5760 5761 5763 5765 5765 5766 5766 5766 5765 5765 5765 5764 5763 5760 5758 5756 5752 5747 5743
5491 5510 5529 5548 5566 5583 5598 5612 5623 5635 5645 5655 5664 5672 5680 5688 5695 5701 5706 5713 5719 5725 5731 5736 5741 5745 5749 5752 5755 5757 5759 5760 5761 5763 5763 5762 5762 5762 5761 5760 5758 5756 5753 5750 5747 5744 5739